| time (UTC) | temp F | wind direction | speed MPH | gust MPH | rain 1hr in | rain 24hr in | rain mn in | humidity % | barometer mb |
| 20260904231601 | 80 | 270 | 0.0 | 2.0 | 0.00 | 0.00 | 0.00 | 82 | 1010.5 |
| 20260904230057 | 81 | 299 | 1.0 | 3.0 | 0.00 | 0.00 | 0.00 | 77 | 1010.6 |
| 20260904224603 | 83 | 314 | 2.0 | 4.0 | 0.00 | 0.00 | 0.00 | 68 | 1010.6 |
| 20260904223057 | 83 | 316 | 1.0 | 3.0 | 0.00 | 0.00 | 0.00 | 67 | 1010.6 |
| 20260904221555 | 83 | 319 | 2.0 | 5.0 | 0.00 | 0.00 | 0.00 | 66 | 1010.4 |
| 20260904220111 | 84 | 319 | 1.0 | 4.0 | 0.00 | 0.00 | 0.00 | 66 | 1010.7 |
| 20260904214553 | 83 | 296 | 3.0 | 6.0 | 0.00 | 0.00 | 0.00 | 72 | 1011.1 |
| 20260904213052 | 84 | 295 | 2.0 | 7.0 | 0.00 | 0.00 | 0.00 | 73 | 1011.2 |
| 20260904211558 | 0 | 0.0 | 0.0 | 0.00 | 0.00 | 0.00 | 1010.9 | ||
| 20260904210059 | 83 | 287 | 3.0 | 6.0 | 0.00 | 0.00 | 0.00 | 72 | 1011.0 |
| 20260904204548 | 83 | 297 | 2.0 | 5.0 | 0.00 | 0.00 | 0.00 | 73 | 1011.1 |
| 20260904203045 | 84 | 279 | 3.0 | 7.0 | 0.00 | 0.00 | 0.00 | 73 | 1011.3 |
| 20260904201542 | 85 | 322 | 2.0 | 7.0 | 0.00 | 0.00 | 0.00 | 71 | 1011.1 |
| 20260904200041 | 84 | 306 | 3.0 | 6.0 | 0.00 | 0.00 | 0.00 | 74 | 1011.2 |
| 20260904194551 | 84 | 281 | 3.0 | 8.0 | 0.00 | 0.00 | 0.00 | 72 | 1011.3 |
| 20260904193040 | 0 | 0.0 | 0.0 | 0.00 | 0.00 | 0.00 | 1011.4 | ||
| 20260904191540 | 0 | 0.0 | 0.0 | 0.00 | 0.00 | 0.00 | 1011.6 | ||
| 20260904190029 | 83 | 288 | 2.0 | 6.0 | 0.00 | 0.00 | 0.00 | 65 | 1012.2 |
| 20260904184529 | 83 | 323 | 2.0 | 6.0 | 0.00 | 0.00 | 0.00 | 65 | 1012.5 |
| 20260904183028 | 83 | 302 | 6.0 | 11.0 | 0.00 | 0.00 | 0.00 | 64 | 1012.7 |
| 20260904181526 | 84 | 314 | 6.0 | 12.0 | 0.00 | 0.00 | 0.00 | 62 | 1012.7 |
| 20260904180024 | 84 | 306 | 6.0 | 11.0 | 0.00 | 0.00 | 0.00 | 63 | 1012.8 |
| 20260904174551 | 83 | 293 | 5.0 | 9.0 | 0.00 | 0.00 | 0.00 | 63 | 1012.7 |
| 20260904173021 | 83 | 313 | 3.0 | 9.0 | 0.00 | 0.00 | 0.00 | 65 | 1012.8 |
| 20260904171522 | 83 | 332 | 4.0 | 11.0 | 0.00 | 0.00 | 0.00 | 65 | 1013.1 |
| 20260904170022 | 82 | 333 | 3.0 | 8.0 | 0.00 | 0.00 | 0.00 | 66 | 1013.0 |
| 20260904164516 | 82 | 304 | 2.0 | 6.0 | 0.00 | 0.00 | 0.00 | 66 | 1013.1 |
| 20260904163013 | 82 | 288 | 1.0 | 9.0 | 0.00 | 0.00 | 0.00 | 67 | 1013.2 |
| 20260904161512 | 82 | 331 | 2.0 | 6.0 | 0.00 | 0.00 | 0.00 | 68 | 1013.4 |
| 20260904160010 | 81 | 17 | 4.0 | 8.0 | 0.00 | 0.00 | 0.00 | 68 | 1013.3 |
| 20260904154507 | 81 | 299 | 3.0 | 8.0 | 0.00 | 0.00 | 0.00 | 67 | 1013.4 |
| 20260904153005 | 81 | 289 | 3.0 | 7.0 | 0.00 | 0.00 | 0.00 | 69 | 1013.4 |
| 20260904151502 | 80 | 309 | 3.0 | 7.0 | 0.00 | 0.00 | 0.00 | 71 | 1013.4 |
| 20260904150059 | 80 | 11 | 2.0 | 6.0 | 0.00 | 0.00 | 0.00 | 71 | 1013.4 |
| 20260904144558 | 79 | 300 | 3.0 | 8.0 | 0.00 | 0.00 | 0.00 | 71 | 1013.4 |
| 20260904143054 | 0 | 0.0 | 0.0 | 0.00 | 0.00 | 0.00 | 1013.5 | ||
| 20260904141550 | 0 | 0.0 | 0.0 | 0.00 | 0.00 | 0.00 | 1013.6 | ||
| 20260904140048 | 0 | 0.0 | 0.0 | 0.00 | 0.00 | 0.00 | 1013.5 | ||
| 20260904134547 | 0 | 0.0 | 0.0 | 0.00 | 0.00 | 0.00 | 1013.3 | ||
| 20260904133039 | 0 | 0.0 | 0.0 | 0.00 | 0.00 | 0.00 | 1013.4 | ||
| 20260904131535 | 0 | 359 | 1.0 | 0.0 | 0.00 | 0.00 | 0.00 | 1013.5 | |
| 20260904130030 | 0 | 0.0 | 0.0 | 0.00 | 0.00 | 0.00 | 1013.6 | ||
| 20260904124532 | 75 | 345 | 0.0 | 4.0 | 0.00 | 0.00 | 0.00 | 83 | 1013.6 |
| 20260904123029 | 74 | 324 | 0.0 | 3.0 | 0.00 | 0.00 | 0.00 | 84 | 1013.8 |
| 20260904121528 | 74 | 18 | 1.0 | 4.0 | 0.00 | 0.00 | 0.00 | 86 | 1013.8 |
| 20260904120027 | 73 | 314 | 2.0 | 6.0 | 0.00 | 0.00 | 0.00 | 87 | 1013.7 |
| 20260904114528 | 71 | 295 | 2.0 | 6.0 | 0.00 | 0.00 | 0.00 | 90 | 1013.9 |
| 20260904113026 | 70 | 316 | 2.0 | 4.0 | 0.00 | 0.00 | 0.00 | 92 | 1013.9 |
| 20260904111527 | 70 | 316 | 3.0 | 6.0 | 0.00 | 0.00 | 0.00 | 93 | 1013.7 |
| 20260904110036 | 69 | 309 | 3.0 | 5.0 | 0.00 | 0.10 | 0.00 | 94 | 1013.6 |
| 20260904104522 | 69 | 304 | 1.0 | 4.0 | 0.00 | 0.10 | 0.00 | 94 | 1013.3 |
| 20260904103021 | 69 | 306 | 1.0 | 3.0 | 0.00 | 0.10 | 0.00 | 93 | 1012.9 |
| 20260904101523 | 69 | 311 | 1.0 | 4.0 | 0.00 | 0.10 | 0.00 | 92 | 1013.1 |
| 20260904100018 | 69 | 314 | 1.0 | 3.0 | 0.00 | 0.27 | 0.00 | 92 | 1013.0 |
| 20260904094520 | 70 | 307 | 0.0 | 3.0 | 0.00 | 0.27 | 0.00 | 91 | 1012.9 |
| 20260904093017 | 70 | 314 | 2.0 | 4.0 | 0.00 | 0.27 | 0.00 | 91 | 1012.8 |
| 20260904091520 | 70 | 319 | 2.0 | 5.0 | 0.00 | 0.27 | 0.00 | 90 | 1012.8 |
| 20260904090013 | 70 | 285 | 2.0 | 5.0 | 0.00 | 0.27 | 0.00 | 90 | 1013.1 |
| 20260904084518 | 71 | 311 | 2.0 | 5.0 | 0.00 | 0.27 | 0.00 | 90 | 1013.1 |
| 20260904083013 | 71 | 339 | 2.0 | 4.0 | 0.00 | 0.27 | 0.00 | 90 | 1013.2 |
| 20260904081511 | 71 | 307 | 2.0 | 4.0 | 0.00 | 0.27 | 0.00 | 90 | 1013.1 |
| 20260904080009 | 71 | 320 | 2.0 | 5.0 | 0.00 | 0.63 | 0.00 | 89 | 1013.0 |
| 20260904074514 | 71 | 318 | 1.0 | 4.0 | 0.00 | 0.63 | 0.00 | 89 | 1013.1 |
| 20260904073011 | 71 | 316 | 2.0 | 4.0 | 0.00 | 0.63 | 0.00 | 89 | 1013.0 |
| 20260904071505 | 71 | 7 | 3.0 | 8.0 | 0.00 | 0.63 | 0.00 | 89 | 1012.7 |
| 20260904070008 | 71 | 333 | 4.0 | 10.0 | 0.00 | 0.63 | 0.00 | 88 | 1012.5 |
| 20260904064502 | 71 | 288 | 4.0 | 10.0 | 0.00 | 0.63 | 0.00 | 90 | 1012.2 |
| 20260904063056 | 0 | 0.0 | 0.0 | 0.00 | 0.63 | 0.00 | 1012.0 | ||
| 20260904061555 | 0 | 0.0 | 0.0 | 0.00 | 0.63 | 0.00 | 1011.9 | ||
| 20260904060049 | 0 | 0.0 | 0.0 | 0.00 | 0.63 | 0.00 | 1011.7 | ||
| 20260904053147 | 72 | 321 | 0.0 | 3.0 | 0.00 | 0.63 | 0.00 | 88 | 1011.7 |
| 20260904051550 | 73 | 307 | 0.0 | 2.0 | 0.00 | 0.63 | 0.00 | 86 | 1011.5 |
| 20260904050041 | 0 | 0.0 | 0.0 | 0.00 | 0.85 | 0.00 | 1011.8 | ||
| 20260904043037 | 75 | 233 | 2.0 | 9.0 | 0.00 | 0.85 | 0.00 | 86 | 1012.0 |
| 20260904041534 | 76 | 274 | 3.0 | 10.0 | 0.00 | 0.85 | 0.00 | 86 | 1012.3 |
| 20260904040033 | 76 | 247 | 3.0 | 12.0 | 0.00 | 0.85 | 0.85 | 86 | 1012.5 |
| 20260904033028 | 79 | 341 | 4.0 | 8.0 | 0.00 | 0.85 | 0.85 | 88 | 1012.9 |
| 20260904031528 | 79 | 292 | 3.0 | 7.0 | 0.00 | 0.85 | 0.85 | 86 | 1013.0 |
| 20260904030028 | 78 | 310 | 1.0 | 3.0 | 0.00 | 0.85 | 0.85 | 90 | 1013.4 |
| 20260904023027 | 77 | 229 | 0.0 | 3.0 | 0.00 | 0.85 | 0.85 | 93 | 1013.4 |
| 20260904021527 | 77 | 276 | 0.0 | 0.0 | 0.00 | 0.85 | 0.85 | 92 | 1013.0 |
| 20260904020027 | 77 | 249 | 0.0 | 2.0 | 0.00 | 0.85 | 0.85 | 92 | 1013.0 |
| 20260904013026 | 78 | 304 | 0.0 | 0.0 | 0.00 | 0.85 | 0.85 | 88 | 1012.7 |
| 20260904011552 | 0 | 0.0 | 0.0 | 0.00 | 0.85 | 0.85 | 1012.6 | ||
| 20260904010018 | 0 | 0.0 | 0.0 | 0.00 | 0.85 | 0.85 | 1012.8 | ||
| 20260904003017 | 80 | 304 | 0.0 | 0.0 | 0.00 | 0.85 | 0.85 | 82 | 1013.0 |
| 20260904001516 | 81 | 304 | 0.0 | 1.0 | 0.00 | 0.85 | 0.85 | 79 | 1013.0 |
| 20260904000030 | 81 | 311 | 0.0 | 1.0 | 0.00 | 0.85 | 0.85 | 78 | 1013.0 |
| 20260903233019 | 81 | 302 | 0.0 | 1.0 | 0.00 | 0.85 | 0.85 | 79 | 1012.5 |